Latest Conditions
At L.F.Wade Int. Airport
Recorded at 9:55 am
Partly Cloudy
Temp.: 
19°C/65°F
Humidity: 
53%
Wind: 
N 8KT
or 9mph
UV Index: 
4
Island Observations
 
Observations
Saturday, April 21, 2018

Observations are in local time and taken at least once an hour, or upon the start and end of specified events such as showers and thunderstorms.

Time Sky / Weather Wind Speed/Gusts Temp. R.H. Pressure
     knots (mph)  °C (°F)  %  mb / "Hg
 09:55 Partly Cloudy  N 8/0 (9/0) 19(65) 53 1024 / 30.24
 08:55 Partly Cloudy  NNW 9/0 (10/0) 18(64) 54 1024 / 30.23
 07:55 Mostly Cloudy  NNW 10/0 (12/0) 17(63) 56 1023 / 30.22
 06:55 Mostly Cloudy  NNW 10/0 (12/0) 17(63) 63 1023 / 30.20
 05:55 Mostly Cloudy  NNW 11/0 (13/0) 18(64) 66 1022 / 30.18
 04:55 Mostly Cloudy  NNW 8/0 (9/0) 18(64) 62 1022 / 30.18
 03:55 Mostly Cloudy  NNW 10/0 (12/0) 18(64) 66 1022 / 30.18
 02:55 Mostly Cloudy  NNW 12/0 (14/0) 18(65) 67 1022 / 30.17
 01:55 Mostly Cloudy  NNW 11/0 (13/0) 18(65) 72 1022 / 30.19
 00:55 Mostly Cloudy  NNW 12/0 (14/0) 19(66) 74 1022 / 30.18
 23:55 Mostly Cloudy  NNW 13/0 (15/0) 19(66) 77 1022 / 30.17
 22:55 Overcast  NNW 11/0 (13/0) 19(66) 84 1022 / 30.17
 21:55 Mostly Cloudy  NNW 11/0 (13/0) 20(68) 85 1021 / 30.16
 20:55 Mostly Cloudy Showers NNW 10/0 (12/0) 20(68) 85 1021 / 30.14
 20:42 Mostly Cloudy Showers NNW 10/0 (12/0) 20(68) 85 1021 / 30.14
 20:38 Mostly Cloudy Showers NNW 12/0 (14/0) 20(68) 87 1021 / 30.14
 20:31 Mostly Cloudy Showers NNW 14/0 (16/0) 20(68) 88 1021 / 30.14
 20:28 Mostly Cloudy Showers W 13/0 (15/0) 20(68) 87 1021 / 30.14
 19:55 Mostly Cloudy  W 10/0 (12/0) 21(70) 85 1020 / 30.12
 18:55 Mostly Cloudy  W 10/0 (12/0) 22(71) 82 1020 / 30.11
 17:55 Few Clouds  W 11/0 (13/0) 23(73) 78 1019 / 30.09
 16:55 Mostly Cloudy  W 13/0 (15/0) 23(73) 77 1019 / 30.08
 16:27 Mostly Cloudy  W 13/0 (15/0) 23(73) 78 1019 / 30.08
 15:55 Partly Cloudy  WSW 13/0 (15/0) 23(74) 73 1019 / 30.08
 14:55 Few Clouds  WSW 14/0 (16/0) 23(74) 72 1019 / 30.08
 13:55 Few Clouds  WSW 14/0 (16/0) 24(74) 73 1020 / 30.11
 12:55 Mostly Cloudy  W 16/0 (18/0) 23(74) 74 1020 / 30.12
 11:55 Mostly Cloudy  WSW 16/0 (18/0) 23(73) 71 1020 / 30.12
 11:39 Mostly Cloudy  WSW 17/0 (20/0) 23(74) 74 1020 / 30.12
 10:55 Mostly Cloudy  WSW 17/0 (20/0) 23(73) 77 1020 / 30.12
 09:55 Few Clouds  WSW 18/0 (21/0) 22(72) 77 1019 / 30.10
 08:55 Mostly Cloudy  WSW 16/0 (18/0) 22(71) 80 1019 / 30.09
 07:55 Mostly Cloudy  WSW 15/0 (17/0) 22(71) 83 1019 / 30.09
 07:21 Mostly Cloudy  SW 12/0 (14/0) 22(71) 91 1019 / 30.08
 06:55 Mostly Cloudy  SW 13/0 (15/0) 21(71) 91 1018 / 30.07
 06:28 Mostly Cloudy Showers SW 13/0 (15/0) 22(71) 90 1018 / 30.06
 06:22 Mostly Cloudy Showers SW 14/0 (16/0) 22(71) 90 1018 / 30.07
 05:55 Mostly Cloudy  SW 15/0 (17/0) 22(71) 89 1018 / 30.06
 04:55 Mostly Cloudy  SW 13/0 (15/0) 22(71) 89 1018 / 30.07
 03:55 Mostly Cloudy  SW 10/0 (12/0) 21(70) 90 1018 / 30.07
 02:55 Mostly Cloudy  SW 13/0 (15/0) 21(70) 87 1019 / 30.09
 01:55 Mostly Cloudy  SW 15/0 (17/0) 21(70) 93 1019 / 30.10
 01:14 Mostly Cloudy  SW 12/0 (14/0) 21(70) 94 1020 / 30.12
 00:55 Mostly Cloudy  SW 13/0 (15/0) 21(70) 93 1020 / 30.12
 23:55 Mostly Cloudy  SSW 14/0 (16/0) 21(70) 93 1020 / 30.13
 22:55 Mostly Cloudy  SSW 13/0 (15/0) 21(70) 91 1021 / 30.15
 21:55 Partly Cloudy  SSW 16/0 (18/0) 21(69) 88 1021 / 30.14
 20:55 Few Clouds  SSW 18/0 (21/0) 21(69) 88 1020 / 30.13
 19:55 Few Clouds  SSW 16/0 (18/0) 21(69) 87 1020 / 30.12
 18:55 Few Clouds  SW 16/0 (18/0) 21(70) 82 1020 / 30.12
 17:55 Few Clouds  SW 17/0 (20/0) 22(72) 76 1020 / 30.12
 16:55 Few Clouds  SSW 17/0 (20/0) 23(73) 72 1020 / 30.12
 15:55 Few Clouds  SW 17/0 (20/0) 22(72) 71 1020 / 30.13
 14:55 Few Clouds  SW 17/0 (20/0) 22(72) 70 1021 / 30.14
 13:55 Few Clouds  SSW 16/0 (18/0) 23(73) 70 1021 / 30.14
 12:55 Few Clouds  SW 17/0 (20/0) 23(73) 66 1021 / 30.15
 12:42 Partly Cloudy  SW 16/0 (18/0) 23(73) 66 1021 / 30.15
 11:55 Mostly Cloudy  WSW 14/0 (16/0) 22(72) 66 1022 / 30.17
 10:55 Mostly Cloudy  WSW 14/0 (16/0) 22(71) 69 1022 / 30.17
 09:55 Mostly Cloudy  WSW 13/0 (15/0) 21(70) 70 1021 / 30.15
 08:55 Mostly Cloudy  SW 13/0 (15/0) 21(69) 72 1021 / 30.15
 08:26 Mostly Cloudy  SW 11/0 (13/0) 20(69) 72 1021 / 30.15
 07:55 Partly Cloudy  SW 13/0 (15/0) 20(68) 75 1021 / 30.14
 07:38 Mostly Cloudy  SW 13/0 (15/0) 20(67) 76 1020 / 30.13
 06:55 Partly Cloudy  SW 12/0 (14/0) 19(66) 77 1020 / 30.12
 05:55 Partly Cloudy  SW 12/0 (14/0) 19(67) 75 1020 / 30.11
 05:23 Partly Cloudy  WSW 13/0 (15/0) 19(66) 76 1020 / 30.12
 04:55 Mostly Cloudy  SW 12/0 (14/0) 19(66) 75 1020 / 30.11
 03:55 Mostly Cloudy  SW 13/0 (15/0) 19(66) 78 1020 / 30.11
 02:55 Partly Cloudy  SW 10/0 (12/0) 19(66) 78 1020 / 30.12
 01:55 Partly Cloudy  SW 13/0 (15/0) 19(66) 79 1020 / 30.12
 00:55 Few Clouds  SW 12/0 (14/0) 19(67) 75 1021 / 30.14
 23:55 Few Clouds  SW 12/0 (14/0) 19(66) 75 1021 / 30.14
 22:55 Few Clouds  SW 12/0 (14/0) 19(66) 75 1021 / 30.15
 21:55 Few Clouds  SW 12/0 (14/0) 19(66) 74 1021 / 30.14
 20:55 Few Clouds  SW 11/0 (13/0) 19(67) 73 1020 / 30.13
 19:55 Partly Cloudy  WSW 13/0 (15/0) 20(68) 68 1020 / 30.13
 18:55 Partly Cloudy  WSW 13/0 (15/0) 21(69) 64 1020 / 30.12
 17:55 Partly Cloudy  WSW 13/0 (15/0) 21(70) 61 1020 / 30.11
 16:55 Mostly Cloudy  W 12/0 (14/0) 22(71) 60 1019 / 30.10
 15:55 Partly Cloudy  W 11/0 (13/0) 22(71) 56 1019 / 30.10
 14:55 Mostly Cloudy  W 8/0 (9/0) 21(70) 61 1020 / 30.11
 13:55 Mostly Cloudy  W 9/0 (10/0) 22(71) 57 1020 / 30.11
 12:55 Few Clouds  W 12/0 (14/0) 22(72) 57 1020 / 30.12
 11:55 Mostly Cloudy  WNW 14/0 (16/0) 21(70) 60 1020 / 30.13
 10:55 Partly Cloudy  W 13/0 (15/0) 21(70) 61 1020 / 30.12
 09:55 Few Clouds  W 14/0 (16/0) 21(70) 58 1019 / 30.10
 08:55 Mostly Cloudy  W 14/0 (16/0) 20(69) 65 1019 / 30.09
 07:55 Partly Cloudy  W 15/0 (17/0) 20(69) 61 1018 / 30.07
 06:55 Partly Cloudy  W 16/0 (18/0) 20(68) 64 1017 / 30.04
 05:55 Few Clouds  W 20/0 (23/0) 20(68) 62 1017 / 30.02
 04:55 Partly Cloudy  W 17/0 (20/0) 20(68) 68 1016 / 30.01
 03:55 Mostly Cloudy  WSW 16/0 (18/0) 20(69) 75 1016 / 30.00
 02:55 Few Clouds  WSW 15/0 (17/0) 20(68) 75 1016 / 30.00
 01:55 Few Clouds  SW 14/0 (16/0) 20(68) 78 1016 / 30.01
 00:55 Partly Cloudy  SW 14/0 (16/0) 20(68) 77 1017 / 30.02
 23:55 Partly Cloudy  W 16/0 (18/0) 20(69) 68 1016 / 30.01
 22:55 Mostly Cloudy  WSW 15/0 (17/0) 20(69) 77 1016 / 30.00
 21:55 Mostly Cloudy  WSW 14/0 (16/0) 20(68) 78 1016 / 29.99
 20:55 Mostly Cloudy  WSW 14/0 (16/0) 21(69) 80 1015 / 29.98
Island AWOS